Wind_Speed
44 45 45 47 47 48 48 49 49 49 49 49 50 50 51 52 52 53 54 54 55 55 55 56 57 58 59 59 61 61 62 62 61 60 60 60 62 62 62 63 63 62 62
46 46 46 47 48 49 50 50 50 50 51 51 52 52 52 52 53 53 54 55 55 56 57 58 58 60 60 60 60 62 62 63 63 62 60 60 61 61 62 62 63 63 64
47 47 48 48 49 50 51 51 51 51 52 53 53 54 55 55 55 55 55 56 56 57 58 59 60 61 61 62 62 63 63 63 65 65 63 62 62 61 61 62 62 63 65
47 48 48 49 49 49 50 51 52 52 53 54 54 55 55 56 56 57 57 57 57 57 58 59 60 61 61 62 62 63 64 64 64 65 65 65 64 64 64 63 63 63 65
47 48 48 49 49 50 50 51 52 53 53 54 55 56 57 57 57 57 58 58 59 59 59 60 60 60 60 61 62 63 63 63 63 64 64 64 65 65 64 64 63 64 64
47 48 48 49 50 50 51 51 52 53 54 55 56 57 57 57 58 58 59 59 60 60 60 61 61 62 61 62 62 62 62 63 63 63 63 64 64 64 65 65 65 65 64
46 47 48 49 50 50 51 51 52 54 55 55 56 57 57 57 58 58 59 59 60 60 61 61 61 61 62 63 63 63 62 63 63 63 63 63 63 64 65 65 65 64 64
46 47 48 49 50 50 51 52 53 53 55 55 56 56 57 57 57 57 58 59 59 60 60 61 61 62 63 63 63 63 63 63 63 63 63 63 63 63 64 64 64 64 63
46 46 47 48 49 50 50 52 53 54 55 56 56 56 56 57 57 57 58 59 59 59 60 60 61 62 62 64 64 63 63 63 63 63 63 63 63 63 63 64 63 63 63
46 46 47 47 48 49 51 52 53 53 54 55 55 56 56 56 56 57 58 58 59 59 59 60 60 61 61 62 63 63 62 62 62 62 62 62 62 63 63 63 63 63 62
46 46 47 47 48 49 50 51 52 52 53 53 54 54 54 54 55 56 56 57 58 58 58 59 59 60 60 60 61 61 61 61 61 61 62 62 62 62 62 62 63 63 62
46 46 47 48 48 49 50 51 52 52 52 53 53 53 53 54 55 55 56 56 56 56 57 58 58 59 59 60 60 60 60 61 61 61 62 62 61 61 62 62 63 63 62
46 46 47 48 48 49 50 50 51 52 52 52 52 52 52 52 53 54 54 54 54 55 55 56 57 58 59 59 60 60 60 61 61 61 61 61 61 61 61 62 63 63 63
46 46 47 47 48 49 50 50 50 50 50 50 50 51 51 51 51 52 52 52 51 52 53 54 55 56 57 58 58 59 60 60 61 61 61 61 61 61 61 61 62 63 62
46 47 48 48 49 49 49 49 49 49 49 49 49 49 50 50 51 51 50 50 50 51 52 53 53 54 55 56 57 57 58 58 59 60 60 60 60 61 61 61 61 61 61
46 47 48 48 48 49 49 48 49 49 49 49 49 49 49 49 50 50 50 50 50 50 51 51 52 53 53 54 54 55 55 56 56 58 58 59 59 59 59 59 59 59 59
46 47 47 47 47 48 48 47 48 48 48 48 49 49 49 49 50 50 50 50 50 50 49 49 50 50 51 51 52 53 52 53 53 54 55 55 55 55 55 55 55 55 55
46 47 47 47 47 47 47 47 47 47 47 47 47 48 48 48 48 48 48 49 49 48 47 47 48 48 48 49 49 50 50 50 50 50 50 51 51 50 50 51 51 52 52
47 47 47 47 47 47 47 47 47 46 46 46 46 47 47 47 47 47 47 48 48 47 46 46 46 46 46 46 46 46 47 47 47 47 47 47 47 48 48 49 49 49 50
47 47 47 46 46 46 46 46 46 46 46 46 46 46 46 46 47 47 47 47 46 46 45 45 44 44 44 44 44 44 44 45 45 45 45 45 45 45 45 45 45 46 46
47 47 47 46 46 45 45 45 45 45 45 45 45 45 45 45 45 45 45 45 45 44 44 44 44 43 42 42 42 42 42 43 43 43 43 43 43 43 43 44 43 43 43
46 46 46 46 45 45 45 44 44 44 44 43 43 43 43 44 44 44 43 43 43 43 42 42 42 41 41 41 41 41 41 42 42 42 42 43 43 43 43 43 42 42 42
44 45 45 44 44 44 43 43 43 43 42 42 42 42 42 42 42 42 43 42 42 41 41 41 41 41 40 41 41 41 41 41 41 41 41 42 42 42 42 42 41 41 41
43 43 42 42 42 42 42 42 42 41 41 41 41 40 40 41 41 41 41 41 42 41 41 41 41 40 40 40 40 40 40 40 41 41 40 41 41 41 40 40 40 40 40
42 42 41 40 40 40 40 40 39 39 39 39 39 39 39 39 39 40 40 40 40 40 40 40 40 40 40 40 39 39 40 40 40 40 39 39 39 39 39 38 38 38 38
41 40 40 39 39 39 38 38 37 37 37 37 37 37 37 38 38 38 38 39 39 39 39 39 39 39 39 39 39 38 38 38 39 39 38 38 37 37 37 37 36 36 36
Wind_Direction
265 265 264 263 262 262 262 262 263 262 262 262 262 262 262 262 262 262 261 260 260 260 260 260 260 261 261 262 263 263 263 263 263 263 262 262 262 261 260 260 260 260 260
265 265 265 265 264 263 263 263 264 264 263 263 263 263 263 263 264 263 262 261 260 260 261 261 261 262 262 263 263 264 264 263 262 262 262 263 263 262 262 262 261 260 260
266 266 266 265 265 265 264 264 264 264 263 264 264 265 265 265 264 264 263 262 262 262 262 262 263 263 263 263 263 264 264 264 263 262 262 262 262 262 262 262 262 262 262
268 267 268 267 266 266 266 265 264 264 264 265 265 265 266 266 265 265 264 263 263 263 263 263 264 264 264 264 264 265 265 264 264 263 262 262 262 262 262 262 262 262 262
268 268 268 267 267 267 267 266 265 264 265 265 266 266 266 266 265 265 264 263 263 263 264 263 263 264 264 264 264 264 264 264 264 263 262 262 262 262 262 262 262 262 262
270 268 268 268 267 267 267 267 266 266 266 267 266 266 267 267 266 264 263 263 263 263 264 264 264 264 264 264 264 263 263 263 263 263 262 262 262 262 263 263 263 262 262
271 270 270 269 269 268 268 268 268 268 267 267 267 267 267 267 266 265 264 263 263 263 264 264 264 265 265 265 265 264 263 264 264 264 263 263 263 263 264 264 263 263 262
274 273 272 272 271 270 269 269 269 269 269 268 268 268 267 266 266 266 264 264 264 264 264 265 265 265 265 265 265 264 263 264 264 264 263 264 264 264 264 264 263 262 262
276 275 274 273 272 271 270 270 270 270 270 269 269 268 268 267 266 266 265 265 265 265 265 265 266 266 266 265 265 264 263 263 264 264 264 263 264 264 264 263 262 262 262
278 277 275 274 273 272 272 272 272 271 271 271 270 269 268 267 266 266 266 266 266 266 266 266 267 266 266 266 265 265 264 263 264 263 263 264 264 264 263 264 263 263 262
279 278 277 276 275 275 274 273 273 272 272 271 271 270 269 267 267 266 266 267 267 267 267 267 267 266 265 265 265 265 264 263 263 263 263 263 263 263 263 262 262 262 263
279 278 277 277 277 276 276 275 274 274 273 271 270 270 269 268 267 267 267 267 268 268 268 267 267 265 265 264 264 264 264 263 263 263 263 262 263 263 263 262 262 263 264
280 279 278 278 277 277 277 276 276 275 274 272 271 270 269 268 268 268 267 268 268 269 269 268 267 266 266 265 264 264 264 264 263 263 263 263 263 263 262 262 263 264 264
280 280 279 278 278 278 278 277 277 275 274 273 271 270 269 269 269 268 268 268 269 270 270 269 268 267 266 265 265 265 265 264 264 263 263 263 263 263 263 263 264 264 264
280 280 280 279 279 279 278 277 276 275 274 273 272 271 270 269 268 268 268 269 270 270 270 269 269 268 266 265 265 265 265 265 264 264 263 263 263 264 263 264 264 264 264
281 280 280 280 280 279 279 277 276 276 275 274 273 272 271 270 269 269 269 270 271 271 272 271 270 269 267 266 265 264 265 265 264 264 264 264 264 264 264 264 263 264 264
283 282 281 281 281 280 279 278 277 276 275 273 272 272 271 271 270 270 270 270 271 272 272 272 270 269 268 266 265 264 264 264 264 264 264 264 264 264 264 263 264 264 264
285 283 282 281 281 280 280 279 278 277 275 273 272 272 272 272 271 271 271 271 271 272 272 272 270 268 267 266 265 264 264 264 264 264 264 264 263 264 264 264 264 264 264
286 284 283 282 282 281 280 280 279 277 276 274 272 271 271 272 272 272 271 271 271 272 271 271 270 269 267 265 264 263 263 263 264 264 264 263 263 263 264 264 264 264 264
285 285 284 283 282 282 281 279 278 277 276 275 273 272 272 272 271 271 271 271 271 271 270 269 269 269 268 265 264 263 263 263 263 263 263 263 263 263 263 264 264 264 264
286 285 284 283 283 282 281 279 278 277 276 275 274 273 272 272 272 272 272 271 271 271 270 269 268 268 267 266 265 264 264 264 264 264 264 263 263 263 264 264 264 264 263
286 285 285 284 283 282 281 279 278 278 277 275 274 273 273 273 272 272 272 271 270 270 269 268 267 267 266 265 264 265 265 265 265 265 264 264 264 264 265 265 265 264 263
288 287 286 285 284 282 281 280 278 277 276 275 275 274 273 273 272 271 271 270 269 269 269 268 267 267 266 266 266 265 265 265 265 264 264 264 265 265 265 265 264 264 264
289 288 287 285 284 283 281 280 279 277 276 275 274 274 273 273 272 271 270 269 268 268 267 267 267 266 266 266 266 265 265 265 265 264 264 264 265 265 265 264 263 263 263
289 288 287 286 285 284 282 280 278 277 276 274 273 273 273 272 271 271 270 269 268 268 268 267 267 266 266 265 265 265 265 264 263 263 263 264 264 264 264 262 262 261 261
290 288 288 287 286 284 283 281 278 276 275 274 273 273 274 273 272 271 271 270 269 269 268 267 267 266 265 265 264 264 264 263 263 262 263 263 263 262 262 261 261 260 260
Height
5604 5603 5603 5603 5603 5603 5603 5603 5603 5603 5604 5604 5605 5605 5605 5606 5606 5607 5608 5608 5610 5611 5612 5613 5615 5616 5617 5618 5619 5620 5621 5621 5623 5626 5626 5627 5627 5629 5630 5632 5634 5636 5637
5591 5590 5590 5590 5590 5589 5590 5590 5590 5590 5590 5590 5591 5591 5591 5591 5592 5592 5593 5593 5594 5596 5597 5598 5599 5600 5601 5602 5602 5603 5604 5604 5606 5608 5610 5610 5611 5612 5614 5615 5617 5619 5621
5577 5577 5577 5576 5576 5576 5575 5575 5575 5575 5576 5576 5576 5576 5576 5577 5577 5577 5577 5578 5579 5580 5581 5582 5583 5583 5584 5585 5585 5586 5586 5587 5588 5590 5593 5593 5594 5595 5597 5599 5600 5602 5603
5563 5563 5563 5562 5562 5561 5561 5561 5561 5561 5561 5561 5561 5561 5561 5561 5561 5561 5562 5563 5563 5564 5565 5565 5566 5566 5567 5567 5568 5568 5569 5569 5570 5572 5574 5576 5577 5578 5579 5581 5583 5584 5586
5549 5549 5548 5548 5547 5547 5546 5546 5546 5546 5546 5546 5546 5545 5545 5545 5545 5545 5545 5546 5547 5548 5548 5548 5549 5549 5549 5550 5550 5551 5551 5552 5553 5554 5556 5558 5559 5560 5562 5563 5565 5566 5567
5535 5534 5533 5533 5532 5532 5531 5531 5531 5531 5530 5530 5530 5529 5529 5529 5529 5528 5529 5529 5530 5531 5531 5531 5532 5532 5532 5532 5533 5533 5534 5535 5536 5537 5539 5540 5542 5542 5544 5545 5546 5548 5550
5520 5519 5518 5517 5517 5516 5516 5515 5515 5515 5515 5514 5513 5513 5513 5512 5512 5511 5511 5512 5513 5513 5514 5514 5514 5514 5514 5515 5515 5515 5516 5517 5519 5520 5521 5523 5524 5525 5526 5527 5528 5529 5531
5507 5505 5504 5502 5501 5501 5500 5500 5499 5499 5498 5498 5497 5496 5496 5496 5495 5495 5494 5494 5495 5496 5496 5496 5497 5497 5496 5496 5497 5497 5498 5500 5501 5502 5504 5506 5506 5506 5507 5508 5508 5510 5512
5493 5491 5489 5487 5486 5485 5485 5484 5483 5482 5482 5481 5480 5479 5479 5479 5478 5478 5477 5477 5478 5478 5478 5479 5479 5479 5479 5478 5479 5480 5481 5482 5482 5483 5485 5486 5487 5487 5487 5488 5490 5491 5493
5479 5477 5475 5473 5471 5470 5469 5468 5467 5466 5465 5464 5463 5462 5462 5461 5461 5460 5460 5460 5461 5461 5461 5461 5461 5460 5460 5459 5460 5461 5463 5464 5465 5466 5467 5468 5469 5469 5469 5470 5471 5472 5474
5465 5463 5461 5459 5457 5455 5454 5452 5451 5450 5448 5447 5447 5446 5445 5444 5444 5443 5443 5442 5442 5443 5443 5443 5442 5442 5442 5442 5442 5443 5445 5446 5446 5447 5448 5450 5450 5451 5451 5452 5453 5454 5455
5451 5448 5446 5444 5442 5440 5438 5436 5434 5433 5431 5430 5429 5428 5427 5427 5427 5426 5426 5425 5425 5425 5425 5424 5424 5424 5424 5424 5424 5425 5426 5427 5428 5429 5430 5431 5432 5433 5434 5434 5435 5435 5436
5436 5434 5431 5429 5426 5424 5422 5420 5418 5416 5414 5413 5412 5411 5411 5410 5410 5409 5408 5408 5407 5407 5407 5406 5406 5406 5405 5406 5406 5407 5407 5408 5409 5410 5412 5413 5414 5414 5414 5415 5416 5416 5417
5422 5419 5416 5414 5411 5409 5406 5404 5401 5399 5398 5396 5395 5395 5394 5394 5393 5392 5391 5391 5390 5389 5389 5388 5388 5387 5387 5388 5388 5388 5389 5390 5391 5392 5394 5394 5395 5395 5396 5397 5398 5398 5399
5407 5404 5401 5398 5396 5393 5390 5388 5386 5384 5382 5381 5379 5378 5378 5377 5377 5376 5375 5374 5373 5373 5372 5371 5370 5370 5370 5370 5370 5370 5371 5372 5373 5374 5375 5376 5377 5377 5378 5379 5379 5380 5381
5392 5389 5386 5383 5380 5377 5375 5372 5369 5367 5366 5364 5363 5362 5361 5361 5360 5359 5358 5357 5356 5355 5354 5354 5353 5353 5352 5353 5353 5353 5354 5354 5355 5356 5357 5358 5358 5359 5360 5360 5361 5362 5363
5377 5374 5371 5368 5365 5362 5359 5356 5354 5352 5349 5348 5347 5345 5345 5344 5343 5343 5342 5341 5340 5338 5338 5337 5337 5336 5336 5336 5336 5337 5338 5338 5339 5339 5340 5340 5341 5342 5343 5343 5344 5345 5346
5362 5358 5355 5352 5349 5346 5343 5340 5338 5336 5334 5332 5331 5330 5329 5328 5327 5326 5326 5325 5324 5323 5322 5321 5321 5320 5320 5320 5320 5321 5322 5322 5322 5323 5323 5324 5325 5326 5326 5327 5328 5329 5330
5347 5343 5340 5337 5333 5330 5327 5324 5322 5320 5318 5316 5315 5314 5313 5312 5311 5311 5310 5309 5308 5307 5307 5306 5306 5305 5305 5305 5305 5306 5306 5307 5307 5308 5308 5309 5309 5310 5311 5312 5313 5313 5313
5331 5328 5324 5321 5318 5315 5311 5309 5306 5304 5302 5301 5300 5299 5298 5297 5296 5295 5294 5294 5293 5292 5292 5291 5291 5291 5291 5291 5291 5291 5292 5292 5293 5293 5294 5294 5295 5296 5297 5297 5298 5298 5299
5316 5312 5309 5305 5302 5299 5296 5293 5291 5289 5287 5285 5284 5283 5282 5282 5281 5280 5279 5279 5278 5278 5277 5277 5277 5277 5277 5277 5277 5277 5278 5278 5279 5279 5280 5280 5281 5282 5282 5283 5283 5284 5285
5301 5297 5293 5290 5286 5283 5281 5278 5276 5274 5272 5271 5269 5268 5267 5267 5266 5265 5265 5264 5264 5264 5263 5263 5263 5263 5263 5263 5263 5263 5264 5264 5265 5266 5266 5267 5267 5268 5268 5269 5270 5271 5271
5285 5282 5278 5275 5271 5268 5265 5263 5261 5259 5258 5256 5255 5254 5253 5252 5252 5251 5251 5250 5250 5250 5249 5249 5249 5249 5249 5249 5249 5250 5250 5251 5251 5252 5253 5253 5254 5254 5255 5256 5257 5257 5258
5271 5267 5263 5260 5257 5254 5251 5249 5247 5245 5244 5243 5241 5240 5240 5239 5238 5237 5237 5236 5236 5236 5236 5236 5236 5235 5235 5235 5235 5236 5237 5237 5237 5238 5239 5240 5241 5241 5242 5243 5244 5245 5246
5256 5253 5249 5246 5243 5240 5237 5235 5233 5231 5230 5229 5228 5227 5226 5225 5224 5224 5223 5223 5222 5222 5222 5222 5222 5222 5222 5222 5222 5223 5223 5224 5224 5225 5226 5227 5228 5229 5229 5230 5231 5232 5233
5242 5239 5236 5232 5229 5226 5224 5222 5220 5218 5217 5216 5215 5214 5213 5212 5211 5211 5210 5210 5209 5209 5209 5209 5208 5208 5208 5209 5209 5209 5210 5210 5211 5212 5213 5214 5216 5216 5217 5218 5219 5220 5222